Rochester/St. Mary\'s Hospita, MN
on Monday, April 28, 2014

Monday
Previous Day Next Day
Daily Summary
 ActualAverage (KRST)Record (KRST)
Temperature
Mean Temperature °F °F  
Max Temperature 45°F 61°F 87°F (2004)
Min Temperature 41°F 38°F 25°F (1913)
Degree Days
Heating Degree Days 22    
Moisture
Dew Point 39°F   
Average Humidity 86    
Maximum Humidity 93    
Minimum Humidity 76    
Precipitation
Precipitation 0.18 in in in ()
Wind
Wind Speed 16 mph   
Max Wind Speed 22 mph   
Max Gust Speed 40 mph   
Visibility 9 miles   
Events     
Averages and records for this station are not official NWS values.
Key: T is trace of precipitation, MM is missing value
Source: NWS Daily Summary
Seasonal Weather Averages
Time(CDT)TemperatureDew PointHumidity Pressure Visibility Wind DirectionWind SpeedGust SpeedPrecipitationEvents Conditions
12:12 AM 45.5°F 38.5°F 76% 29.68 in 10.0 miles East 18.4 mph 26.5 mph N/A   Overcast
12:32 AM 45.5°F 38.3°F 76% 29.68 in 10.0 miles East 19.6 mph 27.6 mph N/A   Overcast
1:12 AM 45.1°F 38.5°F 77% 29.66 in 10.0 miles East 16.1 mph 33.4 mph N/A   Overcast
1:32 AM 45.5°F 38.7°F 77% 29.66 in 10.0 miles East 17.3 mph 31.1 mph N/A   Overcast
1:53 AM 45.5°F 38.7°F 77% 29.65 in 10.0 miles East 8.1 mph 23.0 mph N/A   Overcast
2:12 AM 44.2°F 38.3°F 80% 29.64 in 10.0 miles East 9.2 mph 21.9 mph N/A   Overcast
2:32 AM 43.7°F 37.9°F 80% 29.63 in 10.0 miles East 13.8 mph 25.3 mph N/A   Overcast
3:12 AM 43.0°F 37.8°F 82% 29.62 in 7.0 miles East 12.7 mph 28.8 mph 0.01 in   Overcast
3:32 AM 42.1°F 39.4°F 90% 29.62 in 10.0 miles East 15.0 mph 26.5 mph 0.02 in   Overcast
3:52 AM 42.3°F 39.7°F 91% 29.62 in 10.0 miles East 12.7 mph 25.3 mph 0.02 in   Overcast
4:12 AM 42.3°F 39.7°F 91% 29.60 in 10.0 miles East 12.7 mph 25.3 mph N/A   Overcast
4:33 AM 42.3°F 39.6°F 90% 29.60 in 10.0 miles East 13.8 mph 23.0 mph N/A   Overcast
4:52 AM 42.3°F 39.4°F 90% 29.61 in 10.0 miles East 12.7 mph 29.9 mph N/A   Overcast
5:12 AM 42.4°F 39.4°F 89% 29.60 in 10.0 miles East 12.7 mph 21.9 mph N/A   Overcast
5:32 AM 42.8°F 39.6°F 88% 29.60 in 10.0 miles East 12.7 mph 27.6 mph N/A   Overcast
5:52 AM 42.8°F 39.4°F 88% 29.59 in 10.0 miles East 18.4 mph 31.1 mph N/A   Overcast
6:13 AM 42.4°F 39.2°F 88% 29.59 in 10.0 miles East 13.8 mph 32.2 mph N/A   Overcast
6:32 AM 42.3°F 38.8°F 88% 29.59 in 10.0 miles East 18.4 mph 39.1 mph N/A   Overcast
6:52 AM 42.3°F 38.5°F 86% 29.59 in 10.0 miles East 18.4 mph 29.9 mph N/A   Overcast
7:13 AM 42.1°F 38.3°F 86% 29.59 in 10.0 miles East 18.4 mph 35.7 mph N/A   Overcast
7:32 AM 42.1°F 38.3°F 86% 29.59 in 10.0 miles East 19.6 mph 31.1 mph N/A   Overcast
7:52 AM 41.7°F 38.5°F 88% 29.58 in 7.0 miles ENE 10.4 mph 27.6 mph N/A   Overcast
8:13 AM 41.4°F 39.2°F 92% 29.58 in 7.0 miles East 16.1 mph 32.2 mph N/A   Overcast
8:32 AM 41.4°F 39.2°F 92% 29.57 in 7.0 miles East 16.1 mph 26.5 mph N/A   Overcast
8:52 AM 41.2°F 39.0°F 92% 29.58 in 4.0 miles East 15.0 mph 28.8 mph 0.02 in   Overcast
9:13 AM 41.2°F 39.2°F 93% 29.58 in 4.0 miles East 17.3 mph 32.2 mph 0.02 in   Overcast
9:52 AM 41.0°F 39.2°F 93% 29.58 in 5.0 miles East 12.7 mph 24.2 mph 0.07 in   Overcast
10:12 AM 41.4°F 38.8°F 91% 29.56 in 7.0 miles East 12.7 mph 26.5 mph N/A   Overcast
10:32 AM 42.1°F 38.8°F 88% 29.55 in 10.0 miles East 17.3 mph 27.6 mph N/A   Overcast
10:53 AM 42.1°F 38.7°F 88% 29.56 in 10.0 miles East 21.9 mph 31.1 mph N/A   Overcast
11:12 AM 42.1°F 38.3°F 86% 29.58 in 10.0 miles East 21.9 mph 36.8 mph N/A   Overcast
11:32 AM 42.1°F 38.5°F 87% 29.57 in 10.0 miles East 16.1 mph 32.2 mph N/A   Overcast
11:53 AM 41.9°F 39.0°F 90% 29.59 in 4.0 miles East 11.5 mph 27.6 mph 0.03 in   Overcast
12:12 PM 41.4°F 39.2°F 92% 29.59 in 5.0 miles East 16.1 mph 24.2 mph 0.02 in   Overcast
12:32 PM 41.2°F 39.2°F 93% 29.59 in 5.0 miles East 16.1 mph 26.5 mph 0.04 in   Overcast
12:53 PM 41.5°F 39.6°F 93% 29.58 in 10.0 miles East 15.0 mph 26.5 mph 0.04 in   Overcast
1:12 PM 41.9°F 39.6°F 91% 29.58 in 10.0 miles East 13.8 mph 27.6 mph N/A   Overcast
1:32 PM 42.1°F 39.9°F 92% 29.56 in 10.0 miles East 18.4 mph 29.9 mph N/A   Overcast
1:53 PM 43.0°F 40.1°F 90% 29.56 in 10.0 miles East 16.1 mph 31.1 mph N/A   Overcast
2:12 PM 43.7°F 40.1°F 87% 29.55 in 10.0 miles ENE 19.6 mph 33.4 mph N/A   Overcast
2:52 PM 44.1°F 40.3°F 87% 29.55 in 10.0 miles East 18.4 mph 34.5 mph N/A   Overcast
3:12 PM 44.1°F 40.6°F 88% 29.55 in 10.0 miles ENE 21.9 mph 29.9 mph N/A   Overcast
3:32 PM 44.1°F 40.8°F 88% 29.54 in 10.0 miles East 21.9 mph 35.7 mph N/A   Overcast
4:13 PM 44.8°F 40.5°F 85% 29.56 in 10.0 miles East 18.4 mph 36.8 mph N/A   Overcast
4:32 PM 44.6°F 40.5°F 85% 29.55 in 10.0 miles ENE 20.7 mph 36.8 mph N/A   Overcast
4:52 PM 44.6°F 40.1°F 84% 29.55 in 10.0 miles ENE 20.7 mph 33.4 mph N/A   Overcast
5:13 PM 44.1°F 39.6°F 84% 29.55 in 10.0 miles ENE 20.7 mph 34.5 mph N/A   Overcast
5:32 PM 44.1°F 39.4°F 84% 29.57 in 10.0 miles ENE 16.1 mph 32.2 mph N/A   Overcast
5:52 PM 43.9°F 39.6°F 85% 29.57 in 10.0 miles ENE 19.6 mph 32.2 mph N/A   Overcast
6:13 PM 43.7°F 39.4°F 85% 29.60 in 10.0 miles East 21.9 mph 40.3 mph N/A   Overcast
6:32 PM 43.7°F 39.4°F 85% 29.59 in 10.0 miles East 11.5 mph 31.1 mph N/A   Overcast
6:52 PM 43.0°F 40.1°F 90% 29.60 in 7.0 miles ENE 16.1 mph 26.5 mph N/A   Overcast
7:13 PM 43.2°F 39.7°F 88% 29.60 in 7.0 miles ENE 18.4 mph 27.6 mph N/A   Overcast
7:32 PM 42.8°F 40.1°F 90% 29.59 in 7.0 miles ENE 10.4 mph 27.6 mph N/A   Overcast
7:52 PM 43.0°F 39.9°F 89% 29.59 in 10.0 miles ENE 9.2 mph 28.8 mph N/A   Overcast
8:13 PM 43.2°F 39.6°F 87% 29.58 in 10.0 miles NE 9.2 mph 24.2 mph N/A   Overcast
8:32 PM 43.2°F 39.2°F 86% 29.58 in 10.0 miles NE 12.7 mph 26.5 mph N/A   Overcast
8:52 PM 43.0°F 39.2°F 86% 29.60 in 7.0 miles ENE 16.1 mph 29.9 mph N/A   Overcast
9:13 PM 43.2°F 38.7°F 84% 29.60 in 10.0 miles ENE 15.0 mph 23.0 mph N/A   Overcast
9:32 PM 43.7°F 38.5°F 82% 29.60 in 10.0 miles NE 9.2 mph 20.7 mph N/A   Overcast
9:52 PM 43.7°F 37.8°F 80% 29.60 in 10.0 miles ENE 11.5 mph 21.9 mph N/A   Overcast
10:13 PM 43.7°F 37.6°F 79% 29.60 in 10.0 miles ENE 10.4 mph 23.0 mph N/A   Overcast
10:32 PM 43.7°F 37.4°F 78% 29.60 in 10.0 miles ENE 16.1 mph 20.7 mph N/A   Overcast
10:52 PM 43.2°F 37.4°F 80% 29.59 in 10.0 miles ENE 12.7 mph 21.9 mph N/A   Overcast
11:13 PM 42.8°F 37.6°F 82% 29.59 in 10.0 miles NE 10.4 mph 23.0 mph N/A   Overcast
11:32 PM 42.8°F 37.6°F 82% 29.60 in 10.0 miles ENE 10.4 mph 24.2 mph N/A   Overcast
11:52 PM 42.4°F 37.8°F 83% 29.60 in 10.0 miles NE 10.4 mph 17.3 mph N/A   Overcast
Astronomy
Sunrise:06:05 AM (CDT) Moon Rise:05:46 AM (CDT)4/28
Sunset:08:09 PM (CDT) Moon Set:07:47 PM (CDT)4/28
Moon Phase
Apr. 28 Apr. 29 May. 07 May. 14 May. 21

Copyright © 2017 The Weather Underground, Inc.